Regional Weather Roundup
Issued by NWS

Home | Current Version | Previous Version | Text Only | Print | Product List | Glossary Off
Versions: 1 2 3 4 5 6 7 8 9 10 11 12 13 14 15 16 17 18 19 20 21 22 23 24 25 26 27 28 29 30 31 32 33 34 35 36 37 38 39 40 41 42 43 44 45 46 47 48 49 50

000
ASUS43 KOAX 301810
RWRNE

WEATHER ROUNDUP FOR NEBRASKA
NATIONAL WEATHER SERVICE OMAHA NE
100 PM CDT TUE JUN 30 2015

NOTES: SATELLITE DATA IS BEING USED TO AUGMENT CLOUD COVER ABOVE
       12000 FEET.
       "FAIR" INDICATES FEW OR NO CLOUDS BELOW 12,000 FEET WITH NO
       SIGNIFICANT WEATHER AND/OR OBSTRUCTIONS TO VISIBILITY.

  * THESE STATIONS DO NOT REPORT WEATHER SUCH AS RAIN...SNOW OR FOG.

NEZ001>004-019>022-054>056-301900-
NEBRASKA PANHANDLE

CITY           SKY/WX    TMP DP  RH WIND       PRES   REMARKS
SCOTTSBLUFF    MOSUNNY   91  57  31 VRB6      30.00F
6HR MIN TEMP:  60; 6HR MAX TEMP:  91;

ALLIANCE       SUNNY     89  52  28 W7        29.99F
6HR MIN TEMP:  55; 6HR MAX TEMP:  89;

CHADRON        PTSUNNY   84  65  52 N3        29.94F
6HR MIN TEMP:  58; 6HR MAX TEMP:  85;

KIMBALL          N/A    N/A N/A N/A MISG        N/A
SIDNEY         SUNNY     90  49  24 W5        30.05F
6HR MIN TEMP:  58; 6HR MAX TEMP:  91;

$$

NEZ057>060-069>072-079>082-301900-
SOUTHWEST NEBRASKA

CITY           SKY/WX    TMP DP  RH WIND       PRES   REMARKS
NORTH PLATTE   MOSUNNY   91  61  36 SW8       29.94F HX  91
6HR MIN TEMP:  62; 6HR MAX TEMP:  91;

IMPERIAL       MOSUNNY   94  56  27 S8        29.98F HX  92
6HR MIN TEMP:  62; 6HR MAX TEMP:  94;

LEXINGTON      PTSUNNY   92  59  33 S10       29.94F HX  91
MCCOOK         MOSUNNY   94  57  28 SW13      29.95F HX  92
6HR MIN TEMP:  62; 6HR MAX TEMP:  94;

OGALLALA       SUNNY     91  60  35 SW7       29.97F HX  90
$$

NEZ005>010-023>029-035>040-094-301900-
NORTH CENTRAL NEBRASKA

CITY           SKY/WX    TMP DP  RH WIND       PRES   REMARKS
VALENTINE      PTSUNNY   85  63  47 E12       29.92F
6HR MIN TEMP:  65; 6HR MAX TEMP:  86;

AINSWORTH      PTSUNNY   83  64  51 E10       29.94F
BROKEN BOW     PTSUNNY   89  65  44 S10       29.93F HX  91
6HR MIN TEMP:  63; 6HR MAX TEMP:  89;

O`NEILL        CLOUDY    82  62  50 SE10      29.95F
ORD            CLOUDY    85  65  51 E10       29.92F
6HR MIN TEMP:  57; 6HR MAX TEMP:  85;

THEDFORD       PTSUNNY   92  60  34 SW10      29.94F HX  91
$$

NEZ041-046>049-061>064-073>077-083>087-301900-
SOUTH CENTRAL NEBRASKA

CITY           SKY/WX    TMP DP  RH WIND       PRES   REMARKS
GRAND ISLAND   CLOUDY    88  67  49 SE7       29.94S HX  91
6HR MIN TEMP:  65; 6HR MAX TEMP:  92;

AURORA         PTSUNNY   85  69  57 SE8       29.94F
HASTINGS       PTSUNNY   90  62  39 SW7       29.93F HX  90
6HR MIN TEMP:  67; 6HR MAX TEMP:  91;

HEBRON         MOSUNNY   93  50  22 SW9       29.92F HX  90
HOLDREGE       PTSUNNY   89  60  38 SW10      29.94F
KEARNEY *      PTSUNNY   88  63  42 SW12      29.94S
YORK           CLOUDY    84  66  54 SE7       29.94F
$$

NEZ011>018-030>034-042>045-301900-
NORTHEAST NEBRASKA

CITY           SKY/WX    TMP DP  RH WIND       PRES   REMARKS
NORFOLK        CLOUDY    74  64  71 E8        29.95S
6HR MIN TEMP:  69; 6HR MAX TEMP:  76; 6HR PCP: TRACE;

ALBION         CLOUDY    82  61  49 SE12      29.94F
BLAIR          LGT RAIN  74  65  74 CALM      29.96F
COLUMBUS *     CLOUDY   N/A N/A N/A MISG        N/A
FREMONT        CLOUDY    76  64  64 NE5       29.97S
TEKAMAH        LGT RAIN  74  67  78 CALM      29.95F
6HR MIN TEMP:  67; 6HR MAX TEMP:  76; 6HR PCP: TRACE;

WAYNE          CLOUDY    71  67  89 E7        29.93F
$$

NEZ050>053-065>068-078-088>093-301900-
SOUTHEAST NEBRASKA

CITY           SKY/WX    TMP DP  RH WIND       PRES   REMARKS
LINCOLN        CLOUDY    85  64  49 CALM      29.94S
6HR MIN TEMP:  67; 6HR MAX TEMP:  85;

OMAHA EPPLEY   LGT RAIN  75  67  76 NW3       29.95R HAZE
6HR MIN TEMP:  68; 6HR MAX TEMP:  77; 6HR PCP: TRACE;

BEATRICE       CLOUDY    85  69  58 SE5       29.93F
FALLS CITY     CLOUDY    80  69  69 NE3       29.93S
6HR MIN TEMP:  65; 6HR MAX TEMP:  82;

NEBRASKA CITY  CLOUDY    78  63  59 E3        29.95R
PLATTSMOUTH    CLOUDY    76  64  66 CALM      29.97R
$$

NEZ044-045-051>053-067-301900-
OMAHA AREA

CITY           SKY/WX    TMP DP  RH WIND       PRES   REMARKS
OMAHA EPPLEY   LGT RAIN  75  67  76 NW3       29.95R HAZE
6HR MIN TEMP:  68; 6HR MAX TEMP:  77; 6HR PCP: TRACE;

BLAIR          LGT RAIN  74  65  74 CALM      29.96F
FREMONT        CLOUDY    76  64  64 NE5       29.97S
MILLARD        CLOUDY    77  65  66 CALM      29.95F
OFFUTT AFB     CLOUDY    77  66  67 VRB3      29.95F HAZE
PLATTSMOUTH    CLOUDY    76  64  66 CALM      29.97R
WAHOO          FAIR      80  66  63 NE9       29.96S
$$


USA.gov is the U.S. government's official web portal to all federal, state and local government web resources and services.